Location: Enborne
(51.3833°N, 1.3667°W)
Time: 15:27:26
(UTC+00:00)

NOSS 2-2 (C) - Pass Details

Date: 22 January 2021
Orbit: 463 x 1745 km, 63.3° (Epoch: 03 March)

Event Time Altitude Azimuth Distance (km) Brightness Sun altitude
Rises 20:02:09 0° 315° (NW) 2,937 7.7 -31.4°
Reaches altitude 10° 20:04:12 10° 320° (NW) 2,157 6.8 -31.7°
Enters shadow 20:06:40 30° 336° (NNW) 1,351 5.4 -32.1°
